Regional Weather Roundup
Issued by NWS Upton, NY

Current Version | Previous Version | Graphics & Text | Print | Product List | Glossary Off
Versions: 1 2 3 4 5 6 7 8 9 10 11 12 13 14 15 16 17 18 19 20 21 22 23 24 25 26 27

000
ASUS41 KOKX 011604
RWROKX

REGIONAL WEATHER ROUNDUP
NATIONAL WEATHER SERVICE NEW YORK NY
1200 PM EDT SUN MAY 01 2016

NOTE: "FAIR" INDICATES FEW OR NO CLOUDS BELOW 12,000 FEET WITH NO
SIGNIFICANT WEATHER AND/OR OBSTRUCTIONS TO VISIBILITY.

NYZ071-072-176-178-NJZ106-104-011700-
NEW YORK CITY METRO AREA


CITY           SKY/WX    TMP DP  RH WIND       PRES   REMARKS
CENTRAL PARK   LGT RAIN  47  43  86 VRB6      30.21F FOG
LAGUARDIA APRT LGT RAIN  50  43  77 SE13      30.19F
KENNEDY INTL   LGT RAIN  49  46  90 SE12      30.21F FOG
NEWARK/LIBERTY LGT RAIN  46  45  96 SE10      30.19F
BRNX BOT. GARD   N/A     48  43  81 S5        30.19F
TETERBORO      LGT RAIN  49  42  77 SE6       30.18F
$$

NYZ177-179-078>081-011700-
LONG ISLAND NEW YORK

CITY           SKY/WX    TMP DP  RH WIND       PRES   REMARKS
FARMINGDALE    LGT RAIN  48  42  80 SE9       30.22F
ISLIP          LGT RAIN  48  44  86 SE10      30.21F
SHIRLEY        LGT RAIN  48  44  86 E5        30.22F
RIVERHEAD        N/A     48  45  87 SE2       30.22F
WESTHAMPTON    CLOUDY    47  44  90 VRB5      30.24F
EAST HAMPTON   CLOUDY    47  39  74 SE7       30.23F
MONTAUK POINT    N/A     48  36  63 VRB6      30.25F
$$

NYZ052-065-067-011700-
HUDSON VALLEY

CITY           SKY/WX    TMP DP  RH WIND       PRES   REMARKS
WHITE PLAINS   LGT RAIN  47  45  93 SE9       30.18F
NEWBURGH       LGT RAIN  45  43  93 SE7       30.19F FOG
MONTGOMERY     LGT RAIN  46  42  86 SE5       30.18F
POUGHKEEPSIE   CLOUDY    48  40  73 SE5       30.19F HAZE
ALBANY         LGT RAIN  46  38  73 S12G21    30.18F
$$

NJZ001-105-106-008-010-013-015-019>022-104-011700-
NEW JERSEY

CITY           SKY/WX    TMP DP  RH WIND       PRES   REMARKS
NEWARK/LIBERTY LGT RAIN  46  45  96 SE10      30.19F
TETERBORO      LGT RAIN  49  42  77 SE6       30.18F
CALDWELL       LGT RAIN  48  42  80 SE6       30.18F
MORRISTOWN     LGT RAIN  46  45  93 SE5       30.18F
SOMERVILLE     LGT RAIN  47  44  90 SE5       30.16F
SUSSEX         LGT RAIN  45  39  79 VRB5      30.17F
ANDOVER          N/A     44  40  85 VRB6      30.16F
TRENTON        LGT RAIN  48  46  93 SE5       30.17F FOG
MILLVILLE      LGT RAIN  50  48  93 E9        30.14F FOG
ATLANTIC CITY  RAIN      50  48  93 E9        30.16F FOG
WRIGHTSTOWN    LGT RAIN  49  47  95 E7        30.14F
TOMS RIVER     CLOUDY    48  45  87 SE9       30.18F
BELMAR         LGT RAIN  48  46  93 E7        30.20F
$$

PAZ047>061-062-071-011700-
EASTERN PENNSYLVANIA

CITY           SKY/WX    TMP DP  RH WIND       PRES   REMARKS
PHILADELPHIA   RAIN      50  46  86 E7        30.15F FOG
ALLENTOWN      LGT RAIN  47  42  83 VRB5      30.15F
SCRANTON       LGT RAIN  45  39  79 VRB5      30.09F
$$

CTZ002-004>006-009-010-012-RIZ004-006-007-MAZ004-011-015-011700-
SOUTHERN NEW ENGLAND
 IN CT

CITY           SKY/WX    TMP DP  RH WIND       PRES   REMARKS
BRADLEY INTL   CLOUDY    51  33  50 S10       30.20F
HARTFORD       CLOUDY    52  32  46 S10       30.22F
DANBURY        LGT RAIN  46  41  82 SE6       30.21F
WTRBRY/OXFORD  LGT RAIN  46  36  66 S8G18     30.21F
BRIDGEPORT     CLOUDY    49  43  80 SE10      30.22F
MERIDEN        LGT RAIN  50  35  56 S7        30.22F
NEW HAVEN      CLOUDY    48  43  82 SE8       30.22F
CHESTER        CLOUDY    48  37  66 SE8       30.22F
GROTON         CLOUDY    49  43  80 SE12      30.23F
WILLIMANTIC    CLOUDY    52  28  39 S9        30.22F

 IN RI

CITY           SKY/WX    TMP DP  RH WIND       PRES   REMARKS
PROVIDENCE     CLOUDY    50  29  44 S12       30.25S
BLOCK ISLAND   LGT RAIN  48  39  71 SE9       30.25F
WESTERLY       CLOUDY    49  32  52 SE10      30.25S

 IN MA

CITY           SKY/WX    TMP DP  RH WIND       PRES   REMARKS
BOSTON         LGT RAIN  53  33  46 S10       30.25
WORCESTER      LGT RAIN  47  33  58 SE5       30.21F
WESTFIELD      CLOUDY    48  37  65 CALM      30.20F
PROVINCETOWN   CLOUDY    51  25  36 S12       30.26S
NANTUCKET      CLOUDY    53  28  38 SE13      30.25F
$$

ANZ330-335-338-340-345-350-353-355-011700-
COASTAL MARINE OBSERVATIONS


STATION/POSITION TIME  SKY/WX   TEMP    WIND        PRES    VSBY  WAVE
                                AIR SEA DIR/SP/G                  HT/PER
                 (UTC)          (F)     (DEG/KT/KT) (MB)    (MI)  (FT/S)
NY HARB ENTRANCE 1450            48 51  110/ 14/ 16 1022.6          3/ 7
20S FIRE ISLAND  1450            47 49  100/ 14/ 16 1022.5          4/ 8
GREAT SOUTH BAY  1500            48 57  140/ 12/ 14   N/A
23 SSW MONTAUK P 1550            46 48  130/ 12/ 14 1023.0          4/ 8
15 E BARNEGAT LI 1522               51                N/A           4/ 8
HUDSON CANYON    1450            50 48              1023.0          4/ 8
KINGS POINT      1500            48 53              1022.6
EXECUTION ROCKS  NOT AVBL
CENTRAL LI SOUND 1500            48     130/  8/ 10   N/A           0
EASTERN LI SOUND 1500            48 48  140/ 10/ 14   N/A
ROBBINS REEF     1500            48     130/ 11/ 13 1022.1
$$


>>>>>>>>>>>>>>>>>>>>>>>>>>>> KEY <<<<<<<<<<<<<<<<<<<<<<<<<<<
>                                                          <
>     SKY/WX - SKY CONDITION/PRESENT WEATHER               <
>     TMP    - TEMPERATURE IN FAHRENHEIT                   <
>     DP     - DEWPOINT IN FAHRENHEIT                      <
>     RH     - RELATIVE HUMIDITY IN PERCENT                <
>     WIND   - DIRECTION AND SPEED IN MPH                  <
>     PRES   - MEAN SEA LEVEL PRESSURE IN INCHES OF HG     <
>     WCI    - WIND CHILL INDEX                            <
>     VSB    - VISIBILITY IN MILES                         <
>     HX     - HEAT INDEX                                  <
>     TC     - TEMPERATURE IN CELSIUS                      <
>     VRB    - VARIABLE WIND DIRECTION                     <
>                                                          <
>>>>>>>>>>>>>>>>>>>>>>>>>>>> KEY <<<<<<<<<<<<<<<<<<<<<<<<<<<






USA.gov is the U.S. government's official web portal to all federal, state and local government web resources and services.